Laurinburg-Maxton, NC

6:14 PM EDT on October 20, 2017 (GMT -0400)
Laurinburg-Maxton

Weather History for KMEB - July, 2013

Change the Weather History Date:

Wednesday, July 3, 2013

  Actual Average (KHFF) Record (KHFF)
Temperature  
Mean Temperature 78 °F -  
Max Temperature 82 °F 87 °F 99 °F (2012)
Min Temperature 73 °F 70 °F 57 °F (2010)
Cooling Degree Days 12    
Growing Degree Days 28 (Base 50)    
Moisture  
Dew Point 74 °F    
Average Humidity 92    
Maximum Humidity 100    
Minimum Humidity 74    
Precipitation  
Precipitation 0.59 in - - ()
Sea Level Pressure  
Sea Level Pressure 30.21 in    
Wind  
Wind Speed 6 mph (South)    
Max Wind Speed 16 mph    
Max Gust Speed -    
Visibility 8 miles    
Events Rain , Thunderstorm    
Averages and records for this station are not official NWS values.
T = Trace of Precipitation, MM = Missing Value Source: NWS Daily Summary

Daily Weather History Graph

Daily Weather History Graph

Search for Another Location

Airport or City:

Trip Planner

Search our weather history database for the weather conditions in past years. The results will help you decide how hot, cold, wet, or windy it might be!

Date:

Astronomy

Jul. 03, 2013 Rise Set
Actual Time 6:08 AM EDT 8:34 PM EDT
Civil Twilight 5:39 AM EDT 9:04 PM EDT
Nautical Twilight 5:03 AM EDT 9:40 PM EDT
Astronomical Twilight 4:23 AM EDT 10:20 PM EDT
Moon 2:40 AM EDT (7/3) 4:47 PM EDT (7/3)
Length of Visible Light 15h 24m
Length of Day
14h 25m
Waning Crescent, 18% of the Moon is Illuminated
Jul 3
Waning Crescent
Jul 8
New
Jul 15
First Quarter
Jul 22
Full
Jul 29
Last Quarter

Hourly Weather History & Observations

Time (EDT) Temp. Heat Index Dew Point Humidity Pressure Visibility Wind Dir Wind Speed Gust Speed Precip Events Conditions
12:52 AM 73.9 °F - 73.0 °F 97% 30.17 in 10.0 mi SSE 4.6 mph - N/A   Scattered Clouds
1:08 AM 73.4 °F - 73.4 °F 100% 30.17 in 10.0 mi SSE 5.8 mph - N/A   Scattered Clouds
1:52 AM 73.0 °F - 73.0 °F 100% 30.17 in 10.0 mi SSE 5.8 mph - N/A   Scattered Clouds
2:04 AM 73.4 °F - 73.4 °F 100% 30.17 in 10.0 mi SSE 4.6 mph - N/A   Mostly Cloudy
2:52 AM 73.9 °F - 73.9 °F 100% 30.16 in 9.0 mi South 8.1 mph - N/A   Overcast
3:52 AM 73.9 °F - 73.9 °F 100% 30.17 in 9.0 mi South 6.9 mph - N/A   Overcast
4:52 AM 73.9 °F - 73.0 °F 97% 30.17 in 7.0 mi SSE 5.8 mph - N/A   Mostly Cloudy
5:52 AM 73.9 °F - 73.0 °F 97% 30.19 in 6.0 mi Variable 5.8 mph - 0.00 in Rain Light Rain
6:09 AM 73.4 °F - 73.4 °F 100% 30.20 in 3.0 mi SSW 4.6 mph - 0.04 in Rain Heavy Rain
6:14 AM 73.4 °F - 73.4 °F 100% 30.20 in 1.8 mi South 3.5 mph - 0.08 in Rain Heavy Rain
6:21 AM 73.4 °F - 73.4 °F 100% 30.20 in 2.0 mi Calm Calm - 0.10 in Rain Light Rain
6:29 AM 73.4 °F - 73.4 °F 100% 30.20 in 10.0 mi Calm Calm - 0.10 in   Overcast
6:36 AM 73.4 °F - 73.4 °F 100% 30.20 in 10.0 mi SE 3.5 mph - 0.10 in   Overcast
6:52 AM 73.9 °F - 73.9 °F 100% 30.20 in 8.0 mi ESE 4.6 mph - 0.10 in   Overcast
7:52 AM 75.0 °F - 75.0 °F 100% 30.21 in 7.0 mi South 6.9 mph - 0.01 in   Overcast
8:52 AM 78.1 °F - 75.0 °F 90% 30.22 in 10.0 mi South 8.1 mph - N/A   Overcast
8:59 AM 78.8 °F - 75.2 °F 89% 30.23 in 10.0 mi South 8.1 mph - N/A   Mostly Cloudy
9:45 AM 78.8 °F - 75.2 °F 89% 30.22 in 10.0 mi South 6.9 mph - N/A   Mostly Cloudy
9:52 AM 80.1 °F 85.4 °F 75.9 °F 87% 30.22 in 10.0 mi Variable 6.9 mph - N/A   Mostly Cloudy
10:01 AM 78.8 °F - 75.2 °F 89% 30.22 in 10.0 mi SSE 6.9 mph - N/A   Scattered Clouds
10:17 AM 78.8 °F - 75.2 °F 89% 30.23 in 7.0 mi SSE 5.8 mph - 0.02 in   Mostly Cloudy
10:22 AM 78.8 °F - 75.2 °F 89% 30.22 in 0.8 mi Variable 4.6 mph - 0.26 in Rain Heavy Rain
10:29 AM 78.8 °F - 75.2 °F 89% 30.23 in 1.0 mi SSW 3.5 mph - 0.26 in Rain Light Rain
10:32 AM 78.8 °F - 75.2 °F 89% 30.23 in 5.0 mi SSW 3.5 mph - 0.26 in Rain Light Rain
10:52 AM 81.0 °F 86.7 °F 75.0 °F 82% 30.23 in 10.0 mi South 10.4 mph - 0.26 in   Mostly Cloudy
11:33 AM 82.4 °F 88.2 °F 73.4 °F 74% 30.22 in 10.0 mi South 6.9 mph - N/A   Mostly Cloudy
11:52 AM 82.9 °F 90.2 °F 75.0 °F 77% 30.21 in 10.0 mi Variable 4.6 mph - N/A   Mostly Cloudy
12:06 PM 80.6 °F 86.2 °F 75.2 °F 84% 30.22 in 10.0 mi SE 8.1 mph - N/A   Mostly Cloudy
12:21 PM 78.8 °F - 73.4 °F 83% 30.22 in 2.0 mi SE 12.7 mph - 0.13 in Rain Light Rain
12:30 PM 78.8 °F - 73.4 °F 83% 30.22 in 10.0 mi SSE 16.1 mph - 0.13 in Rain Light Rain
12:48 PM 78.8 °F - 73.4 °F 83% 30.23 in 6.0 mi South 8.1 mph - 0.16 in Rain , Thunderstorm Rain
12:52 PM 78.1 °F - 73.9 °F 87% 30.23 in 5.0 mi South 10.4 mph - 0.17 in Rain , Thunderstorm Thunderstorms and Rain
1:37 PM 73.4 °F - 73.4 °F 100% 30.23 in 4.0 mi SSW 11.5 mph - 0.03 in Rain Rain
1:52 PM 73.0 °F - 72.0 °F 96% 30.24 in 10.0 mi SSW 10.4 mph - 0.03 in Rain Light Rain
2:01 PM 73.4 °F - 71.6 °F 94% 30.24 in 10.0 mi SW 4.6 mph - 0.01 in Rain , Thunderstorm Light Rain
2:16 PM 73.4 °F - 71.6 °F 94% 30.24 in 10.0 mi South 4.6 mph - 0.01 in   Partly Cloudy
2:52 PM 73.9 °F - 71.1 °F 91% 30.21 in 7.0 mi WSW 3.5 mph - 0.02 in Rain Light Rain
3:52 PM 78.1 °F - 73.0 °F 84% 30.21 in 10.0 mi SW 3.5 mph - 0.00 in   Partly Cloudy
4:52 PM 79.0 °F - 73.0 °F 82% 30.20 in 10.0 mi SSW 3.5 mph - N/A   Clear
5:34 PM 78.8 °F - 73.4 °F 83% 30.21 in 10.0 mi South 6.9 mph - N/A Thunderstorm Mostly Cloudy
5:49 PM 78.8 °F - 73.4 °F 83% 30.21 in 10.0 mi South 6.9 mph - N/A   Mostly Cloudy
5:52 PM 78.1 °F - 73.9 °F 87% 30.20 in 10.0 mi South 4.6 mph - N/A   Scattered Clouds
6:00 PM 78.8 °F - 73.4 °F 83% 30.21 in 10.0 mi SSE 6.9 mph - N/A Thunderstorm Scattered Clouds
6:19 PM 78.8 °F - 73.4 °F 83% 30.20 in 10.0 mi SSE 6.9 mph - N/A   Scattered Clouds
6:52 PM 77.0 °F - 73.9 °F 90% 30.22 in 10.0 mi SE 4.6 mph - 0.00 in   Scattered Clouds
7:52 PM 75.9 °F - 73.9 °F 94% 30.22 in 10.0 mi SE 5.8 mph - N/A   Clear
8:52 PM 75.0 °F - 73.9 °F 96% 30.23 in 10.0 mi SSE 3.5 mph - N/A   Scattered Clouds
9:52 PM 73.9 °F - 73.0 °F 97% 30.24 in 10.0 mi SE 5.8 mph - N/A   Clear
10:52 PM 73.0 °F - 72.0 °F 96% 30.25 in 10.0 mi South 5.8 mph - N/A   Mostly Cloudy
11:52 PM 73.0 °F - 73.0 °F 100% 30.25 in 10.0 mi Calm Calm - N/A   Mostly Cloudy